Stations météo

Publicité
Gueret-St Laurent, France (7361): Température de l'air & dewpoint: 17.03.2019 23:00:00 - 23.03.2019 23:00:00 (CET)Gueret-St Laurent, France (7361): Température de l'air 5cm: 17.03.2019 23:00:00 - 23.03.2019 23:00:00 (CET)Gueret-St Laurent, France (7361): Température de l'air -20cm & Température de l'air -100cm: 17.03.2019 23:00:00 - 23.03.2019 23:00:00 (CET)Gueret-St Laurent, France (7361): Vitesse du vent & gusts: 17.03.2019 23:00:00 - 23.03.2019 23:00:00 (CET)Gueret-St Laurent, France (7361): Direction du vent: 17.03.2019 23:00:00 - 23.03.2019 23:00:00 (CET)Gueret-St Laurent, France (7361): reduced air pressure: 17.03.2019 23:00:00 - 23.03.2019 23:00:00 (CET)Gueret-St Laurent, France (7361): visibility: 17.03.2019 23:00:00 - 23.03.2019 23:00:00 (CET)Gueret-St Laurent, France (7361): Ensoleillement: 17.03.2019 23:00:00 - 23.03.2019 23:00:00 (CET)Gueret-St Laurent, France (7361): Quantités de précipitations: 17.03.2019 23:00:00 - 23.03.2019 23:00:00 (CET)
Date & Time tt [°C] td [°C] tt 5cm [°C] tt -20cm [°C] tt -100cm [°C] ff [km/h] ff [knt] fx [km/h] fx [knt] dd ppp [hPa] vv [km] sd [min] rr [mm]
23.03.2019 23:00:00 3,7 1,1 -1,4 9,2 9,3 2 1 5 3 ESE 1028,4 20 0 0,0
23.03.2019 22:00:00 5,6 1,5 -0,1 9,1 9,3 0 0 4 2 N 1028,1 19 0 0,0
23.03.2019 21:00:00 7,8 0,3 1,4 9,0 9,3 0 0 6 3 N 1027,8 20 0 0,0
23.03.2019 20:00:00 11,4 1,1 4,5 8,9 9,3 0 0 13 7 N 1026,8 20 0 0,0
23.03.2019 19:00:00 14,2 2,1 10,5 8,8 9,3 10 6 18 10 N 1025,9 20 21 0,0
23.03.2019 18:00:00 16,9 1,7 15,7 8,7 9,3 13 7 18 10 N 1025,4 20 60 0,0
23.03.2019 17:00:00 18,1 2,4 18,6 8,6 9,3 11 6 19 11 N 1025,3 20 60 0,0
23.03.2019 16:00:00 18,6 2,4 22,4 8,5 9,3 9 5 19 10 NNE 1025,3 20 60 0,0
23.03.2019 15:00:00 19,3 0,8 25,2 8,5 9,3 8 4 18 10 NW 1025,6 20 60 0,0
23.03.2019 14:00:00 18,5 1,9 25,0 8,5 9,3 13 7 29 16 N 1026,3 20 60 0,0
23.03.2019 13:00:00 18,4 2,2 25,9 8,5 9,3 6 3 14 8 WSW 1026,9 20 60 0,0
23.03.2019 12:00:00 17,3 2,8 24,9 8,5 9,3 5 3 11 6 WSW 1027,5 20 60 0,0
23.03.2019 11:00:00 15,5 2,6 20,7 8,6 9,3 2 1 5 3 SSE 1027,9 20 60 0,0
23.03.2019 10:00:00 11,0 3,5 12,4 8,6 9,3 0 0 6 3 N 1028,9 20 60 0,0
23.03.2019 09:00:00 5,4 1,7 2,7 8,7 9,3 5 3 9 5 ESE 1030,0 20 56 0,0
23.03.2019 08:00:00 1,2 0,0 -3,5 8,7 9,3 6 4 15 8 ESE 1030,7 20 35 0,0
23.03.2019 07:00:00 -1,2 -2,0 -4,2 8,8 9,3 5 3 8 5 E 1030,8 20 0 0,0
23.03.2019 06:00:00 -0,8 -1,6 -3,8 8,8 9,3 0 0 7 4 N 1030,4 20 0 0,0
23.03.2019 05:00:00 -0,5 -1,3 -3,5 8,9 9,4 5 3 7 4 E 1030,4 20 0 0,0
23.03.2019 04:00:00 0,2 -1,4 -2,5 8,9 9,3 0 0 13 7 N 1030,6 20 0 0,0
23.03.2019 03:00:00 1,0 0,1 -2,7 8,9 9,3 5 3 12 6 E 1030,5 20 0 0,0
23.03.2019 02:00:00 1,0 -0,2 -2,5 8,9 9,3 4 2 9 5 E 1030,6 20 0 0,0
23.03.2019 01:00:00 1,8 0,3 -2,4 8,9 9,4 5 3 11 6 E 1030,4 20 0 0,0
23.03.2019 00:00:00 2,5 0,7 -1,9 8,8 9,3 2 1 4 2 E 1030,6 20 0 0,0
22.03.2019 23:00:00 4,0 1,2 -0,6 8,8 9,3 3 2 6 4 ESE 1030,2 20 0 0,0
22.03.2019 22:00:00 5,4 1,7 0,2 8,7 9,3 2 1 5 3 SE 1029,6 20 0 0,0
22.03.2019 21:00:00 7,9 0,8 2,7 8,6 9,3 0 0 5 3 N 1028,9 20 0 0,0
22.03.2019 20:00:00 11,5 0,9 5,1 8,5 9,3 5 3 12 6 W 1028,2 20 0 0,0
22.03.2019 19:00:00 15,1 0,9 8,0 8,4 9,4 3 2 12 7 NNW 1027,0 20 16 0,0
22.03.2019 18:00:00 17,2 2,0 16,2 8,2 9,3 9 5 19 10 N 1026,3 20 60 0,0
22.03.2019 17:00:00 18,5 1,5 19,0 8,2 9,4 7 4 21 11 NNE 1026,0 20 60 0,0
22.03.2019 16:00:00 19,5 0,0 23,3 8,1 9,3 6 3 19 11 NW 1026,1 20 60 0,0
22.03.2019 15:00:00 19,1 1,1 25,0 8,0 9,3 10 6 22 12 NNW 1026,6 20 60 0,0
22.03.2019 14:00:00 18,4 0,0 26,8 8,0 9,3 5 3 15 8 N 1027,1 20 60 0,0
22.03.2019 13:00:00 17,1 0,7 26,5 8,0 9,3 6 3 16 8 NNE 1027,9 20 60 0,0
22.03.2019 12:00:00 16,7 0,7 24,6 8,1 9,4 6 3 13 7 N 1028,3 19 60 0,0
22.03.2019 11:00:00 14,5 0,7 18,1 8,1 9,4 4 2 10 5 NE 1028,9 20 60 0,0
22.03.2019 10:00:00 9,9 1,5 9,7 8,2 9,4 6 3 16 8 E 1029,7 20 60 0,0
22.03.2019 09:00:00 4,4 -0,4 2,5 8,2 9,4 10 6 16 8 ESE 1030,8 20 60 0,0
22.03.2019 08:00:00 0,2 -1,9 -3,6 8,4 9,4 9 5 13 7 ESE 1031,4 20 46 0,0
22.03.2019 07:00:00 -2,4 -3,4 -5,9 8,4 9,4 7 4 11 6 E 1031,5 18 0 0,0
22.03.2019 06:00:00 -3,5 -5,5 -5,7 8,4 9,4 3 2 11 6 SE 1031,2 15 0 0,0
22.03.2019 05:00:00 -0,7 -3,1 -3,1 8,5 9,4 9 5 15 8 ESE 1030,4 20 0 0,0
22.03.2019 04:00:00 -1,2 -3,2 -4,2 8,5 9,4 8 4 13 7 E 1030,5 20 0 0,0
22.03.2019 03:00:00 0,0 -2,5 -1,9 8,5 9,4 10 5 16 9 ESE 1030,6 20 0 0,0
22.03.2019 02:00:00 0,1 -2,3 -1,5 8,6 9,4 11 6 18 10 ESE 1030,8 20 0 0,0
22.03.2019 01:00:00 0,1 -1,8 -4,0 8,6 9,4 10 6 14 7 ESE 1031,2 20 0 0,0
22.03.2019 00:00:00 -0,5 -2,4 -3,8 8,5 9,4 8 4 12 6 ESE 1031,4 20 0 0,0
21.03.2019 23:00:00 0,5 -1,7 -3,0 8,5 9,4 4 2 10 5 E 1031,4 20 0 0,0
21.03.2019 22:00:00 1,7 -1,2 -2,3 8,5 9,4 3 2 9 5 SE 1031,3 20 0 0,0
21.03.2019 21:00:00 3,4 -2,0 -1,1 8,4 9,4 3 2 5 3 SE 1030,7 20 0 0,0
21.03.2019 20:00:00 7,9 -1,6 0,3 8,3 9,4 4 2 10 5 ESE 1029,8 20 0 0,0
21.03.2019 19:00:00 9,8 -1,3 5,2 8,2 9,4 8 4 14 8 ENE 1029,4 20 16 0,0
21.03.2019 18:00:00 12,7 -1,3 11,7 8,1 9,4 9 5 22 12 E 1028,7 20 60 0,0
21.03.2019 17:00:00 13,4 -0,6 14,4 8,1 9,4 10 6 29 16 NE 1028,5 20 60 0,0
21.03.2019 16:00:00 13,6 -0,8 17,0 8,1 9,4 15 8 28 15 NNE 1028,6 20 60 0,0
21.03.2019 15:00:00 13,2 -2,7 18,2 8,0 9,4 16 8 27 15 NNE 1029,1 20 60 0,0
21.03.2019 14:00:00 12,9 -1,1 19,5 8,0 9,4 9 5 23 12 ENE 1029,6 20 60 0,0
21.03.2019 13:00:00 12,4 -1,5 18,7 8,1 9,4 11 6 26 14 E 1030,2 19 60 0,0
21.03.2019 12:00:00 11,2 0,0 16,3 8,1 9,4 12 6 26 14 E 1030,7 20 60 0,0
21.03.2019 11:00:00 9,9 -0,6 15,8 8,1 9,4 16 9 29 15 E 1031,1 20 60 0,0
21.03.2019 10:00:00 7,6 2,1 8,6 8,2 9,4 3 1 10 5 SE 1031,7 20 60 0,0
21.03.2019 09:00:00 1,9 0,3 2,5 8,3 9,4 4 2 7 4 E 1032,6 20 60 0,0
21.03.2019 08:00:00 -1,5 -1,9 -7,2 8,4 9,4 2 1 4 2 ESE 1033,3 13 42 0,0
21.03.2019 07:00:00 -3,9 -4,7 -7,4 8,5 9,4 0 0 5 3 N 1033,5 9 0 0,0
21.03.2019 06:00:00 -3,5 -4,3 -6,8 8,5 9,4 0 0 5 3 N 1033,4 11 0 0,0
21.03.2019 05:00:00 -3,0 -3,7 -6,5 8,6 9,4 4 2 5 3 E 1033,3 13 0 0,0
21.03.2019 04:00:00 -2,6 -3,6 -6,2 8,6 9,4 0 0 6 3 N 1033,2 14 0 0,0
21.03.2019 03:00:00 -2,0 -2,8 -5,4 8,6 9,4 4 2 5 3 ESE 1033,5 13 0 0,0
21.03.2019 02:00:00 -1,5 -2,6 -4,9 8,6 9,4 0 0 5 3 N 1033,9 19 0 0,0
21.03.2019 01:00:00 -0,6 -2,0 -4,4 8,6 9,4 2 1 3 2 SSE 1034,0 20 0 0,0
21.03.2019 00:00:00 0,2 -1,9 -3,5 8,6 9,4 0 0 4 2 N 1034,0 20 0 0,0
20.03.2019 23:00:00 1,3 -1,3 -2,9 8,6 9,4 0 0 4 2 N 1033,7 20 0 0,0
20.03.2019 22:00:00 2,1 -1,9 -1,6 8,6 9,4 3 1 4 2 SSE 1033,9 20 0 0,0
20.03.2019 21:00:00 4,8 -1,4 -1,2 8,5 9,4 0 0 9 5 N 1033,3 20 0 0,0
20.03.2019 20:00:00 7,4 -0,6 1,7 8,5 9,4 6 3 10 6 NNE 1032,8 20 0 0,0
20.03.2019 19:00:00 8,7 -0,9 6,3 8,5 9,4 8 4 22 12 NNE 1032,4 20 0 0,0
20.03.2019 18:00:00 10,4 -1,0 9,9 8,4 9,4 16 9 28 15 N 1031,7 20 2 0,0
20.03.2019 17:00:00 11,1 -0,7 12,0 8,4 9,4 16 8 37 20 N 1031,4 20 49 0,0
20.03.2019 16:00:00 11,5 -1,3 14,2 8,3 9,4 21 11 32 17 NE 1031,6 20 60 0,0
20.03.2019 15:00:00 11,3 -2,5 15,1 8,3 9,4 17 9 34 19 NNE 1032,2 20 60 0,0
20.03.2019 14:00:00 11,0 -2,4 16,9 8,3 9,4 15 8 31 17 NE 1032,6 18 60 0,0
20.03.2019 13:00:00 10,6 -2,5 14,0 8,4 9,4 16 8 33 18 NE 1033,1 20 58 0,0
20.03.2019 12:00:00 9,9 -2,4 12,5 8,5 9,4 18 10 31 17 NNE 1033,4 20 58 0,0
20.03.2019 11:00:00 8,9 -0,4 15,0 8,5 9,4 17 9 25 14 ENE 1033,7 20 60 0,0
20.03.2019 10:00:00 5,1 1,0 7,9 8,6 9,4 0 0 5 3 N 1034,2 20 60 0,0
20.03.2019 09:00:00 0,3 -0,8 -0,6 8,7 9,4 3 1 5 3 ESE 1034,9 20 60 0,0
20.03.2019 08:00:00 -2,8 -3,3 -8,2 8,8 9,4 0 0 3 2 N 1035,1 19 42 0,0
20.03.2019 07:00:00 -5,2 -6,2 -8,3 8,9 9,4 0 0 3 2 N 1035,5 20 0 0,0
20.03.2019 06:00:00 -4,8 -5,8 -8,3 8,9 9,4 0 0 5 3 N 1034,7 19 0 0,0
20.03.2019 05:00:00 -4,3 -5,1 -7,8 9,0 9,4 2 1 6 3 ESE 1034,4 19 0 0,0
20.03.2019 04:00:00 -4,1 -4,9 -7,8 9,1 9,4 4 2 5 3 E 1034,3 10 0 0,0
20.03.2019 03:00:00 -3,7 -4,5 -7,2 9,1 9,4 0 0 2 1 N 1034,5 19 0 0,0
20.03.2019 02:00:00 -3,1 -3,9 -6,5 9,1 9,4 0 0 5 3 N 1034,4 20 0 0,0
20.03.2019 01:00:00 -2,8 -3,9 -6,2 9,2 9,4 0 0 3 1 N 1034,1 5 0 0,0
20.03.2019 00:00:00 -2,0 -3,4 -5,2 9,2 9,4 0 0 3 2 N 1034,1 18 0 0,0
19.03.2019 23:00:00 -1,5 -3,2 -4,5 9,2 9,4 0 0 3 2 N 1033,5 20 0 0,0
19.03.2019 22:00:00 0,1 -2,4 -3,7 9,2 9,4 0 0 3 2 N 1032,5 20 0 0,0
19.03.2019 21:00:00 2,2 -2,3 -2,1 9,1 9,4 0 0 5 3 N 1031,6 20 0 0,0
19.03.2019 20:00:00 4,5 -2,4 -1,2 9,1 9,4 5 3 10 6 N 1030,7 20 0 0,0
19.03.2019 19:00:00 6,6 -1,3 3,6 9,1 9,4 8 4 16 8 NNE 1029,8 20 0 0,0
19.03.2019 18:00:00 8,2 -0,6 7,2 9,0 9,4 13 7 26 14 N 1029,0 20 26 0,0
19.03.2019 17:00:00 8,7 -0,6 8,4 8,9 9,4 19 11 30 16 N 1028,5 20 34 0,0
19.03.2019 16:00:00 9,6 -0,3 9,6 8,9 9,3 16 9 34 18 N 1028,4 20 32 0,0
19.03.2019 15:00:00 9,2 -2,1 9,0 8,9 9,3 15 8 33 18 N 1028,3 20 31 0,0
19.03.2019 14:00:00 8,9 0,1 10,1 8,9 9,4 16 9 28 15 NNE 1028,7 20 24 0,0
19.03.2019 13:00:00 8,8 0,5 9,2 8,9 9,4 14 7 26 14 NE 1028,7 20 44 0,0
19.03.2019 12:00:00 8,3 2,1 8,9 8,9 9,3 9 5 16 9 E 1028,8 20 24 0,0
19.03.2019 11:00:00 6,2 2,1 6,0 8,9 9,4 4 2 10 5 NNW 1029,1 20 9 0,2
19.03.2019 10:00:00 4,6 2,5 5,1 9,0 9,3 7 4 14 8 NNE 1028,9 20 16 0,0
19.03.2019 09:00:00 3,9 2,4 3,9 9,0 9,4 8 4 15 8 N 1028,6 20 12 0,0
19.03.2019 08:00:00 3,5 2,6 0,5 9,0 9,3 6 4 17 9 N 1028,0 20 19 0,0
19.03.2019 07:00:00 3,3 2,4 1,8 9,0 9,3 4 2 10 5 NNW 1027,3 17 0 0,0
19.03.2019 06:00:00 3,9 3,0 3,5 9,0 9,4 4 2 11 6 WNW 1026,8 19 0 0,0
19.03.2019 05:00:00 4,2 3,5 4,1 9,1 9,4 5 3 11 6 N 1026,5 7 0 0,0
19.03.2019 04:00:00 4,3 3,7 4,1 9,0 9,3 0 0 9 5 N 1025,9 16 0 0,0
19.03.2019 03:00:00 4,3 3,7 4,2 9,1 9,3 3 1 8 4 NW 1026,0 20 0 0,0
19.03.2019 02:00:00 4,3 3,6 3,9 9,0 9,3 0 0 4 2 N 1026,0 7 0 0,4
19.03.2019 01:00:00 4,3 3,4 3,9 9,1 9,3 0 0 3 2 N 1025,8 16 0 0,2
19.03.2019 00:00:00 4,3 3,4 4,0 9,1 9,4 2 1 6 3 NNW 1026,1 14 0 0,4
18.03.2019 23:00:00 4,3 3,3 3,5 9,1 9,4 0 0 4 2 N 1026,4 14 0 0,0
18.03.2019 22:00:00 4,3 3,3 3,5 9,0 9,4 2 1 8 4 WNW 1026,4 20 0 0,2
18.03.2019 21:00:00 4,5 3,2 3,7 9,0 9,3 0 0 8 5 N 1025,9 20 0 0,0
18.03.2019 20:00:00 4,8 3,1 4,2 9,0 9,3 6 3 21 12 WNW 1025,9 19 0 0,8
18.03.2019 19:00:00 5,5 2,5 5,0 8,9 9,3 3 2 28 15 SW 1024,9 20 0 0,0
18.03.2019 18:00:00 7,1 2,4 7,0 8,9 9,3 11 6 30 16 W 1024,6 20 0 0,0
18.03.2019 17:00:00 6,8 3,2 6,2 8,9 9,3 8 4 32 17 SW 1024,3 20 0 0,0
18.03.2019 16:00:00 9,2 0,1 10,1 8,9 9,3 11 6 35 19 W 1023,8 20 16 0,0
18.03.2019 15:00:00 10,2 1,6 10,3 8,9 9,3 10 5 27 15 WNW 1023,7 20 25 0,0
18.03.2019 14:00:00 9,4 0,8 10,6 8,8 9,3 9 5 29 16 NW 1024,3 20 19 0,0
18.03.2019 13:00:00 8,6 1,7 10,4 8,9 9,3 8 5 25 13 WNW 1025,1 20 20 0,0
18.03.2019 12:00:00 8,2 3,0 8,9 8,9 9,3 10 6 26 14 W 1025,3 20 28 0,0
18.03.2019 11:00:00 6,3 3,5 6,9 9,0 9,3 8 5 19 11 W 1025,5 20 7 0,0
18.03.2019 10:00:00 5,0 3,5 5,3 9,0 9,3 8 4 20 11 WNW 1025,6 19 1 0,0
18.03.2019 09:00:00 3,9 2,7 2,7 9,0 9,3 9 5 20 11 W 1025,1 19 5 0,0
18.03.2019 08:00:00 2,7 1,8 1,3 9,1 9,3 9 5 21 11 W 1024,8 9 3 0,8
18.03.2019 07:00:00 1,7 0,5 0,5 9,1 9,2 2 1 9 5 ESE 1024,3 19 0 0,0
18.03.2019 06:00:00 1,8 0,6 -0,4 9,2 9,3 4 2 13 7 W 1024,0 20 0 0,0
18.03.2019 05:00:00 1,6 0,6 -1,4 9,2 9,2 5 3 14 7 WNW 1023,8 20 0 0,0
18.03.2019 04:00:00 2,0 0,5 -0,2 9,3 9,3 4 2 13 7 W 1023,2 20 0 0,0
18.03.2019 03:00:00 2,6 0,7 0,9 9,3 9,2 5 3 21 11 W 1023,1 20 0 0,0
18.03.2019 02:00:00 4,0 1,7 2,9 9,4 9,2 9 5 22 12 W 1022,9 20 0 0,0
18.03.2019 01:00:00 4,1 2,0 3,0 9,4 9,2 10 5 29 16 W 1022,6 20 0 0,0
18.03.2019 00:00:00 4,0 2,3 -0,2 9,4 9,2 12 7 27 14 W 1022,3 20 0 0,0
17.03.2019 23:00:00 3,3 1,2 2,0 9,4 9,2 6 3 32 17 NW 1021,9 20 0 1,2

tt = Température de l'air
td = dewpoint
tt 5cm = Température de l'air 5cm
tt -20cm = Température de l'air -20cm
tt -100cm = Température de l'air -100cm
ff = Vitesse du vent
fx = gusts
dd = Direction du vent
ppp = reduced air pressure
vv = visibility
sd = Ensoleillement
rr = Quantités de précipitations

stations d'obs. à proximité